THOR ABLESTAR DEB, 2701

Orbit data source: Space-Track

THOR ABLESTAR DEB, 2701 is space debris in LEO originally from a launch on Thu, 24 Jun 1965 UTC launched from the Air Force Western Test Range (AFWTR). Debris objects in space refer to the collection of defunct objects orbiting the Earth. Examples of debris include non-operational satellites, rocket bodies, and fragments generated from explosions, collisions, or faulty payload assembly.

Loading next visibility...
Identifier
2701, 1965-048E
Orbit
LEO
Country
Flag of USUS
Related business
Manufacturer
Unknown
Mission
Spacecraft
Bus & Motor
Unknown
Mass
Unknown
Launch date (UTC)
1965-06-24 (60 years ago)
Launch vehicle
Unknown
Launch site
Air Force Western Test Range (AFWTR)
Object type
Payload
Rocket body
Debris
Shape & HBR
Unknown
Radar Cross Section
Small (<0.1 m²)

Expand to show TLE details & history
Last TLE update: 14 hours ago

TLE from 14 hours ago
0 THOR ABLESTAR DEB
1 02701U 65048E   25257.62297875  .00000233  00000-0  27828-3 0  9998
2 02701  89.8785 290.9415 0062260 343.2287 133.2190 13.63776003983771
Epoch: 2025-09-14T14:57Z
TLE epoch observation values (Epoch: 2025-09-14T14:57:05.364Z)
Latitude
63.12029°
Longitude
-107.40865°
Altitude
1,064.647 km
Speed
7.31 km/s
True Right ascension
07h 22m 48s
True Declination
62° 59' 13"
Sunlit
Object was in daylight at epoch
Visualization orbit readout
Latitude
Unknown
Longitude
Unknown
Altitude
Unknown
Speed
Unknown
Apparent Right ascension
Unknown
Apparent Declination
Unknown
Sunlit
N/A
Visualization observer readout
Local Sidereal Time
22:03:50
Azimuth
Unknown
Elevation
Unknown
Doppler factor
Unknown
Orbital elements
Apogee altitude
1,065.085 km
Perigee altitude
972.976 km
Semi-major axis
7,397.167 km
Eccentricity
0.00623
Inclination
89.8785°
RAAN
290.9415°
Arg. of periapsis
343.2287°
True anomaly
133.73615°
Mean anomaly
133.219°
Eccentric anomaly
133.47785°
Mean motion
3.4115 °/min
Orbital period
105.53 mins
BSTAR
0.00027828
Loading maneuver chart data...
Computing Atmospheric mass density...

Documentation

Showing up to 5 results
|